Location: *
(46.3500°N, 10.9000°E)
Time: 22:59:03
(UTC+00:00)

Explorer 7 - Pass Details

Date: 26 April 2021
Orbit: 484 x 677 km, 50.3° (Epoch: 06 May)

Event Time Altitude Azimuth Distance (km) Brightness Sun altitude
Rises 22:41:58 0° 292° (WNW) 2,755 10.8 -29.4°
Reaches altitude 10° 22:44:16 10° 284° (WNW) 1,889 9.8 -29.5°
Enters shadow 22:44:29 11° 283° (WNW) 1,808 9.6 -29.5°
Maximum altitude 22:48:18 39° 215° (SW) 904 - -29.5°
Drops below altitude 10° 22:52:34 10° 147° (SSE) 1,994 - -29.6°
Sets 22:55:03 0° 140° (SE) 2,929 - -29.7°
